Location: Namasale
(1.5000°N, 32.6167°E)
Time: 22:27:29
(UTC+00:00)

Vanguard 3 - Pass Details

Date: 23 April 2021
Orbit: 507 x 3262 km, 33.4° (Epoch: 16 May)

Event Time Altitude Azimuth Distance (km) Brightness Sun altitude
Rises 15:59:21 0° 224° (SW) 7,221 12.4 -2.5°
Reaches altitude 10° 16:04:48 10° 217° (SW) 6,190 12.0 -3.8°
Maximum altitude 16:22:44 45° 151° (SSE) 3,411 10.0 -8.2°
Drops below altitude 10° 16:35:02 10° 83° (E) 4,396 10.3 -11.2°
Enters shadow 16:35:11 10° 82° (E) 4,423 10.3 -11.2°
